THOR ABLESTAR DEB, 148

Orbit data source: Space-Track

THOR ABLESTAR DEB, 148 is space debris in LEO originally from a launch on Thu, 29 Jun 1961 UTC launched from the Air Force Eastern Test Range (AFETR). Debris objects in space refer to the collection of defunct objects orbiting the Earth. Examples of debris include non-operational satellites, rocket bodies, and fragments generated from explosions, collisions, or faulty payload assembly.

Loading next visibility...
Identifier
148, 1961-015AJ
Orbit
LEO
Country
Flag of USUS
Related business
Manufacturer
Unknown
Mission
Spacecraft
Bus & Motor
Unknown
Mass
Unknown
Launch date (UTC)
1961-06-29 (64 years ago)
Launch vehicle
Unknown
Launch site
Air Force Eastern Test Range (AFETR)
Object type
Payload
Rocket body
Debris
Shape & HBR
Unknown shape, 0.1 m
Radar Cross Section
Medium (>0.1 m² and <1 m²)

Expand to show TLE details & history
Last TLE update: 10 hours ago

TLE from 10 hours ago
0 THOR ABLESTAR DEB
1 00148U 61015AJ  25293.22434856  .00002199  00000-0  11881-2 0  9993
2 00148  65.7752  25.0843 0131465  85.1471 276.4605 14.10291529725137
Epoch: 2025-10-20T05:23Z
TLE epoch observation values (Epoch: 2025-10-20T05:23:03.715Z)
Latitude
-0.00004°
Longitude
-84.61093°
Altitude
850.922 km
Speed
7.432 km/s
True Right ascension
01h 40m 20s
True Declination
0° 00' 00"
Sunlit
Object was in full shadow at epoch
Visualization orbit readout
Latitude
Unknown
Longitude
Unknown
Altitude
Unknown
Speed
Unknown
Apparent Right ascension
Unknown
Apparent Declination
Unknown
Sunlit
N/A
Visualization observer readout
Local Sidereal Time
10:29:55
Azimuth
Unknown
Elevation
Unknown
Doppler factor
Unknown
Orbital elements
Apogee altitude
951.988 km
Perigee altitude
761.757 km
Semi-major axis
7,235.01 km
Eccentricity
0.01315
Inclination
65.7752°
RAAN
25.0843°
Arg. of periapsis
85.1471°
True anomaly
274.96099°
Mean anomaly
276.4605°
Eccentric anomaly
275.711°
Mean motion
3.52683 °/min
Orbital period
102.07 mins
BSTAR
0.0011881

Documentation

Showing up to 5 results
|